[[{"header":{"parameterUnit":"m.s-1","parameterCategory":1,"la1":30.2992,"la2":30.254,"lo1":-89.0895,"lo2":-89.0443,"dy":0.0025,"dx":0.0025,"nx":19,"ny":19,"refTime":"2026-05-10T03:00:00:Z","depth":0,"parameterNumber":2,"parameterNumberName":"U-component_of_WINDS"},"data":[0,0,0,0.9699,0.9702,0.9823,0.9823,0.999,0.9992,0,0,0,0,0,0,0,0,0,0,0,0.9668,0.967,0.9699,0.9702,0.9823,0.9823,0.999,0.9992,0,0,0,0,0,0,0,0,0,0,0,0.9668,0.9669,0.9671,0.9703,0.9823,0.9823,0.999,0.9895,0,0,0,0,0,0,0,0,0,0,0.9776,0.9751,0.9669,0.9671,0.9704,0.9823,0.9823,0.989,0.9901,0.994,0,0.9974,0,0.9986,1.0003,1.0004,0,0,0,0.9699,0.9742,0.977,0.9671,0.9705,0.9822,0.9768,0.9896,0.9908,0.9954,0.9976,0.9982,0.9988,1.0005,1.0006,1.0241,1.0242,0,0,0.9693,0.9693,0.9762,0.9778,0.9757,0.9764,0.9771,0.9903,0.9928,0.9977,0.9986,0.9991,1.0006,1.0007,1.024,1.0241,0,0,0,0.9676,0.9688,0.9713,0.9771,0.9792,0.9767,0.9776,0.9922,0.993,0.9988,0.9993,1.0007,1.0009,1.0238,1.024,1.0303,0,0,0,0.9671,0.9678,0.971,0.9712,0.979,0.9858,0.9792,0.9921,0.9936,0.9992,1.0007,1.0011,1.0237,1.0239,1.0298,1.0333,0,0,0,0.9659,0.9677,0.9696,0.9712,0.9763,0.9856,0.9871,0.9924,0.9939,1.0004,1.0011,1.0236,1.0239,1.0294,1.0326,1.0398,0,0,0,0.9646,0.9748,0.9697,0.9814,0.9762,0.9893,0.987,0.9967,1.0031,1.0008,1.0237,1.024,1.0293,1.0322,1.0393,1.0459,1.0486,0,0,0.9776,0.9764,0.9833,0.979,0.993,0.9874,1.0025,1.0082,1.0088,1.019,1.0196,1.03,1.0326,1.0397,1.0633,1.0654,0,0,0,0.9874,0.9924,0.9961,1.0021,1.0068,1.0112,1.0147,1.0169,1.0256,1.014,1.0344,1.0359,1.0401,1.0433,1.0451,1.0489,1.0254,1.0253,1.0253,1.0058,1.0062,1.0178,1.0197,1.0256,1.0292,1.0342,1.0379,1.0363,1.0412,1.0442,1.0585,1.0622,1.0636,1.0675,1.0476,1.0476,1.0476,1.0476,1.0251,1.0324,1.0303,1.0409,1.0413,1.0502,1.0544,1.0531,1.0617,1.0561,1.0598,1.0538,1.0659,1.0693,1.0481,1.048,1.048,1.0479,1.0479,1.0373,1.0409,1.0434,1.0525,1.0595,1.0611,1.0696,1.0696,1.0697,1.0734,1.0769,1.0768,1.0769,1.075,1.075,1.0751,1.0751,1.0752,1.0752,1.0491,1.0518,1.0588,1.0649,1.069,1.0745,1.0786,1.0827,1.0874,1.0867,1.0868,1.0851,1.0669,1.0624,1.076,1.0758,1.0757,1.0757,1.0756,1.0688,1.0645,1.0753,1.0795,1.0869,1.0942,1.0941,1.1027,1.1061,1.1104,1.108,1.0944,1.0933,1.0918,1.0882,1.1076,1.1076,1.1076,1.1076,1.0794,1.0788,1.0902,1.0969,1.1035,1.1047,1.1175,1.121,1.1239,1.1262,1.1233,1.1184,1.117,1.1167,1.1148,1.1114,1.1363,1.1363,1.1363,1.0917,1.0918,1.1025,1.1052,1.1112,1.1164,1.1286,1.1367,1.1391,1.1375,1.128,1.1268,1.1189,1.1163,1.1145,1.1114,1.1052,0,0]},{"header":{"parameterUnit":"m.s-1","parameterCategory":1,"la1":30.2992,"la2":30.254,"lo1":-89.0895,"lo2":-89.0443,"dy":0.0025,"dx":0.0025,"nx":19,"ny":19,"refTime":"2026-05-10T03:00:00:Z","depth":0,"parameterNumber":3,"parameterNumberName":"V-component_of_WINDS"},"data":[0,0,0,-2.1361,-2.1361,-2.1378,-2.1378,-2.1399,-2.1399,0,0,0,0,0,0,0,0,0,0,0,-2.1357,-2.1357,-2.1361,-2.1361,-2.1378,-2.1378,-2.1399,-2.1399,0,0,0,0,0,0,0,0,0,0,0,-2.1356,-2.1357,-2.1357,-2.1361,-2.1378,-2.1378,-2.1398,-2.1386,0,0,0,0,0,0,0,0,0,0,-2.137,-2.1367,-2.1357,-2.1357,-2.1361,-2.1378,-2.1378,-2.1385,-2.1387,-2.1391,0,-2.1396,0,-2.1398,-2.14,-2.14,0,0,0,-2.1361,-2.1366,-2.137,-2.1357,-2.1362,-2.1378,-2.137,-2.1386,-2.1388,-2.1393,-2.1396,-2.1397,-2.1398,-2.14,-2.14,-2.1428,-2.1428,0,0,-2.136,-2.136,-2.1368,-2.1371,-2.1369,-2.137,-2.1371,-2.1387,-2.139,-2.1396,-2.1397,-2.1398,-2.14,-2.1401,-2.1428,-2.1428,0,0,0,-2.1357,-2.1359,-2.1363,-2.137,-2.1373,-2.137,-2.1371,-2.139,-2.1391,-2.1398,-2.1399,-2.1401,-2.1401,-2.1428,-2.1428,-2.1436,0,0,0,-2.1357,-2.1358,-2.1362,-2.1363,-2.1373,-2.1382,-2.1374,-2.139,-2.1392,-2.1398,-2.1401,-2.1401,-2.1428,-2.1428,-2.1435,-2.1439,0,0,0,-2.1355,-2.1358,-2.1361,-2.1363,-2.137,-2.1382,-2.1384,-2.139,-2.1392,-2.14,-2.1401,-2.1428,-2.1428,-2.1435,-2.1438,-2.1445,0,0,0,-2.1353,-2.1368,-2.1361,-2.1377,-2.137,-2.1387,-2.1384,-2.1396,-2.1404,-2.1401,-2.1428,-2.1428,-2.1434,-2.1438,-2.1445,-2.1451,-2.1454,0,0,-2.1372,-2.137,-2.1379,-2.1373,-2.1391,-2.1384,-2.1403,-2.141,-2.141,-2.1422,-2.1422,-2.1435,-2.1438,-2.1445,-2.1471,-2.1473,0,0,0,-2.1385,-2.1392,-2.1396,-2.1404,-2.141,-2.1414,-2.1418,-2.142,-2.143,-2.1417,-2.144,-2.1442,-2.1446,-2.1449,-2.1451,-2.1453,-2.143,-2.143,-2.143,-2.1411,-2.141,-2.1425,-2.1426,-2.1433,-2.1436,-2.1442,-2.1445,-2.1443,-2.1448,-2.1452,-2.1467,-2.1471,-2.1472,-2.1475,-2.1456,-2.1456,-2.1456,-2.1456,-2.1436,-2.1445,-2.144,-2.1453,-2.1452,-2.1462,-2.1465,-2.1463,-2.1472,-2.1465,-2.1469,-2.1461,-2.1475,-2.1477,-2.1456,-2.1456,-2.1456,-2.1456,-2.1456,-2.1452,-2.1456,-2.1458,-2.1468,-2.1475,-2.1475,-2.1483,-2.1482,-2.1481,-2.1484,-2.1487,-2.1487,-2.1485,-2.1486,-2.1486,-2.1486,-2.1486,-2.1486,-2.1486,-2.1467,-2.147,-2.1477,-2.1483,-2.1486,-2.1491,-2.1493,-2.1496,-2.1499,-2.1498,-2.1498,-2.1494,-2.1477,-2.1471,-2.1487,-2.1487,-2.1486,-2.1486,-2.1486,-2.1491,-2.1485,-2.1497,-2.15,-2.1506,-2.1512,-2.151,-2.1516,-2.1519,-2.1522,-2.1518,-2.1505,-2.1503,-2.1502,-2.1497,-2.1519,-2.1519,-2.1519,-2.1519,-2.1504,-2.1503,-2.1513,-2.1518,-2.1523,-2.1522,-2.1533,-2.1534,-2.1535,-2.1536,-2.1533,-2.1527,-2.1526,-2.1525,-2.1523,-2.1518,-2.1545,-2.1545,-2.1545,-2.1518,-2.1517,-2.1527,-2.1527,-2.1531,-2.1534,-2.1544,-2.1549,-2.1548,-2.1546,-2.1536,-2.1535,-2.1526,-2.1524,-2.1521,-2.1517,-2.151,0,0]}]]